Location: Kott?ru
(16.6209°N, 80.6208°E)
Time: 00:33:29
(UTC+00:00)

Ariane H10 - Pass Details

Date: 18 September 2020
Orbit: 392 x 35044 km, 3.8° (Epoch: 26 October)

Event Time Altitude Azimuth Distance (km) Brightness Sun altitude
Rises 12:58:35 0° 233° (SW) 2,520 6.1 -6.0°
Reaches altitude 10° 13:00:16 10° 215° (SW) 1,966 5.1 -6.4°
Maximum altitude 13:03:45 25° 156° (SSE) 1,991 4.4 -7.3°
Drops below altitude 10° 13:14:07 10° 105° (ESE) 6,165 6.5 -9.8°
Enters shadow 13:14:28 10° 105° (ESE) 6,309 6.5 -9.8°
